カタログに戻る

IRIDIUM 33 DEB

運用中PO
NORAD 34651·DEBRIS·🇺🇸 United States

打ち上げ Sep 14, 1997 から Baikonur Cosmodrome

Loading…

次のパス (今後24時間)

TLE

最新Source: Space-Track

元期: Sep 14, 2026, 02:26 UTC

1 34651U 97051KC  26257.10203931  .00002953  00000-0  10525-2 0  9996
2 34651  86.2834  22.9225 0131093  37.3672 323.6548 14.29228692898257

AllMySatでIRIDIUM 33 DEBをリアルタイム追跡

Download on the App Store